Weather History for Casper, WY

Change the Weather History Date:

Tuesday, March 19, 2013

  Actual Average Record
Temperature  
Mean Temperature 26 °F 36 °F  
Max Temperature 40 °F 49 °F 71 °F (1997)
Min Temperature 12 °F 23 °F -8 °F (1965)
Degree Days  
Heating Degree Days 39 29  
Month to date heating degree days 573 597  
Since 1 July heating degree days 5623 6045  
Cooling Degree Days 0 0  
Month to date cooling degree days 0 0  
Year to date cooling degree days 0 0  
Moisture  
Dew Point 18 °F    
Average Humidity 60    
Maximum Humidity 92    
Minimum Humidity 27    
Precipitation  
Precipitation 0.06 in 0.03 in 0.75 in (1969)
Month to date precipitation 0.29 0.46  
Year to date precipitation 1.06 1.54  
Snow  
Snow 0.70 in 0.40 in - ()
Month to date snowfall 4.1 6.2  
Since 1 July snowfall 36.8 55.6  
Snow Depth 1.00 in    
Sea Level Pressure  
Sea Level Pressure 30.14 in    
Wind  
Wind Speed 9 mph (NW)    
Max Wind Speed 20 mph    
Max Gust Speed 26 mph    
Visibility 7 miles    
Events Snow    
T = Trace of Precipitation, MM = Missing Value Source: NWS Daily Summary

Daily Weather History Graph

Daily Weather History Graph

Search for Another Location

Airport:

Trip Planner

Search our weather history database for the weather conditions in past years. The results will help you decide how hot, cold, wet, or windy it might be!

Date:

Astronomy

Mar. 19, 2013 Rise Set
Actual Time 7:10 AM MDT 7:17 PM MDT
Civil Twilight 6:42 AM MDT 7:45 PM MDT
Nautical Twilight 6:09 AM MDT 8:18 PM MDT
Astronomical Twilight 5:35 AM MDT 8:52 PM MDT
Moon 11:55 AM MDT (3/19) 2:14 AM MDT (3/19)
Length of Visible Light 13h 03m
Length of Day
12h 07m
Waxing Crescent, 50% of the Moon is Illuminated
Mar 19
Waxing Crescent
Mar 27
Full
Apr 2
Last Quarter
Apr 10
New
Apr 18
First Quarter

Hourly Weather History & Observations

Time (MDT) Temp. Windchill Dew Point Humidity Pressure Visibility Wind Dir Wind Speed Gust Speed Precip Events Conditions
12:22 AM 24.8 °F 14.0 °F 19.4 °F 80% 29.90 in 2.5 mi NNE 11.5 mph - 0.00 in Snow Light Snow
12:34 AM 24.8 °F 16.9 °F 21.2 °F 86% 29.91 in 1.5 mi NNE 6.9 mph - N/A Snow Light Snow
12:53 AM 25.0 °F 19.3 °F 21.0 °F 85% 29.97 in 2.5 mi NNE 4.6 mph - 0.00 in Snow Light Snow
1:13 AM 24.8 °F - 21.2 °F 86% 29.93 in 4.0 mi Calm Calm - 0.00 in Snow Light Snow
1:20 AM 24.8 °F 20.5 °F 21.2 °F 86% 29.93 in 1.8 mi North 3.5 mph - 0.00 in Snow Light Snow
1:38 AM 24.8 °F 17.9 °F 21.2 °F 86% 29.94 in 0.8 mi NNW 5.8 mph - 0.00 in Snow Light Snow
1:53 AM 25.0 °F 19.3 °F 21.9 °F 88% 29.99 in 0.8 mi NW 4.6 mph - 0.02 in Snow Light Snow
2:09 AM 24.8 °F 20.5 °F 21.2 °F 86% 29.95 in 1.8 mi NW 3.5 mph - 0.00 in Snow Light Snow
2:50 AM 24.8 °F 16.9 °F 21.2 °F 86% 29.98 in 2.5 mi WNW 6.9 mph - 0.01 in Snow Light Snow
2:53 AM 25.0 °F 17.1 °F 21.9 °F 88% 30.02 in 2.0 mi NW 6.9 mph - 0.01 in Snow Light Snow
3:02 AM 24.8 °F 17.9 °F 21.2 °F 86% 29.98 in 1.0 mi WNW 5.8 mph - 0.01 in Snow Light Snow
3:12 AM 24.8 °F 17.9 °F 21.2 °F 86% 29.99 in 0.8 mi NW 5.8 mph - 0.01 in Snow Light Snow
3:21 AM 24.8 °F 16.9 °F 21.2 °F 86% 29.99 in 1.0 mi NW 6.9 mph - 0.02 in Snow Light Snow
3:25 AM 24.8 °F 16.1 °F 21.2 °F 86% 30.00 in 1.0 mi NW 8.1 mph - 0.02 in Snow Light Snow
3:32 AM 23.0 °F 14.7 °F 19.4 °F 86% 29.99 in 0.8 mi NW 6.9 mph - 0.02 in Snow Light Snow
3:39 AM 23.0 °F 17.0 °F 19.4 °F 86% 29.99 in 2.0 mi WNW 4.6 mph - 0.03 in Snow Light Snow
3:48 AM 21.2 °F 14.9 °F 19.4 °F 93% 29.99 in 9.0 mi West 4.6 mph - 0.03 in   Overcast
3:53 AM 21.9 °F 14.5 °F 19.0 °F 89% 30.04 in 10.0 mi WSW 5.8 mph - 0.03 in   Overcast
4:53 AM 19.9 °F 14.9 °F 17.1 °F 89% 30.06 in 10.0 mi SW 3.5 mph - N/A   Mostly Cloudy
5:53 AM 18.0 °F 6.9 °F 15.1 °F 88% 30.10 in 10.0 mi WSW 9.2 mph - N/A   Clear
6:53 AM 18.0 °F 4.8 °F 14.0 °F 84% 30.13 in 10.0 mi WSW 12.7 mph - N/A   Clear
7:53 AM 19.0 °F 10.0 °F 15.1 °F 85% 30.17 in 10.0 mi WSW 6.9 mph - N/A   Clear
8:53 AM 23.0 °F 12.4 °F 15.1 °F 72% 30.21 in 10.0 mi West 10.4 mph - N/A   Clear
9:53 AM 26.1 °F 17.6 °F 18.0 °F 71% 30.23 in 10.0 mi WNW 8.1 mph - N/A   Clear
10:53 AM 28.9 °F 21.9 °F 19.0 °F 67% 30.22 in 10.0 mi West 6.9 mph - N/A   Clear
11:53 AM 32.0 °F 24.2 °F 21.0 °F 64% 30.21 in 10.0 mi West 9.2 mph - N/A   Partly Cloudy
12:53 PM 36.0 °F 26.3 °F 16.0 °F 44% 30.22 in 10.0 mi West 16.1 mph 23.0 mph N/A   Scattered Clouds
1:53 PM 37.9 °F 28.2 °F 12.0 °F 35% 30.21 in 10.0 mi NW 18.4 mph 25.3 mph N/A   Clear
2:53 PM 37.9 °F 28.5 °F 9.0 °F 30% 30.20 in 10.0 mi West 17.3 mph 24.2 mph N/A   Clear
3:53 PM 39.0 °F 30.6 °F 8.1 °F 28% 30.21 in 10.0 mi WNW 15.0 mph 23.0 mph N/A   Clear
4:49 PM 35.6 °F 25.2 °F 17.6 °F 48% 30.16 in 10.0 mi NNE 18.4 mph 24.2 mph N/A   Clear
4:53 PM 36.0 °F 26.0 °F 18.0 °F 48% 30.26 in 10.0 mi NNE 17.3 mph - N/A   Clear
5:53 PM 33.1 °F 23.4 °F 18.0 °F 54% 30.30 in 10.0 mi NNE 13.8 mph - N/A   Clear
6:53 PM 28.9 °F 19.8 °F 17.1 °F 61% 30.34 in 10.0 mi NE 10.4 mph - N/A   Clear
7:53 PM 24.1 °F 17.0 °F 16.0 °F 71% 30.37 in 10.0 mi NE 5.8 mph - N/A   Clear
8:53 PM 23.0 °F 13.9 °F 16.0 °F 74% 30.38 in 10.0 mi ENE 8.1 mph - N/A   Clear
9:52 PM 21.2 °F 11.7 °F 17.6 °F 86% 30.25 in 10.0 mi ENE 8.1 mph - N/A   Clear
9:53 PM 21.9 °F 13.4 °F 15.1 °F 75% 30.38 in - East 6.9 mph - N/A   Clear
10:52 PM 19.4 °F 11.5 °F 15.8 °F 86% 30.26 in 10.0 mi East 5.8 mph - N/A   Clear
10:53 PM 21.0 °F 13.4 °F 14.0 °F 74% 30.37 in - ENE 5.8 mph - N/A   Clear
11:53 PM 15.1 °F - 10.9 °F 84% 30.37 in - Calm Calm - N/A   Clear